Flag for U.S.A. Weather past 2 weeks in Fargo, North Dakota, U.S.A.

Now
17 °F

Clear.


Feels Like: 17 °F
Forecast: 6 / 16 °F
Wind: No wind

Location: Hector International Airport

Current Time: Dec 17, 2014 at 5:51:23 PM

Latest Report: Dec 17, 2014 at 4:53 PM


Visibility: 10 mi

Pressure: 30.38 "Hg

Humidity: 76%

Dew point: 11 °F

Location of FargoLocation

Historic Weather in Fargo — Graph

°F

Fargo temperature yesterday

Maximum temperature yesterday: 16 °F (at 1:53 PM)
Minimum temperature yesterday: 6 °F (at 11:53 PM)
Average temperature yesterday: 11 °F

Past Weeks' High & Low Weather Summary

 TemperatureHumidityPressure
High46 °F (Dec 14, 7:53 AM)97% (Dec 12, 11:53 PM)30.68 "Hg (Dec 12, 11:53 PM)
Low2 °F (Dec 17, 4:53 AM)59% (Dec 3, 12:53 PM)29.72 "Hg (Dec 14, 1:53 PM)
Average25 °F80%30.17 "Hg
* Reported Dec 2 3:53 PM — Dec 17 3:53 PM, Fargo, Weather by CustomWeather, © 2014

Note: Actual official high and low records may vary slightly from our data, if they occured in-between our weather recording intervals... More about our weather records

Advertising

Fargo weather history for previous 24 hours

 ConditionsComfort  
Time TempWeatherWind HumidityBarometerVisibility
3:53 PM
Dec 17
19 °FSunny.7 mph71%30.38 "Hg10 mi
2:53 PM19 °FSunny.6 mph71%30.38 "Hg10 mi
1:53 PM19 °FSunny.6 mph71%30.39 "Hg10 mi
12:53 PM16 °FSunny.No wind74%30.42 "Hg10 mi
12:03 PMN/AHaze.N/AN/A30.37 "Hg5 mi
11:53 AM13 °FSunny.N/A81%30.44 "Hg6 mi
10:53 AM11 °FSunny.7 mph81%30.46 "Hg7 mi
9:53 AM8 °FSunny.6 mph79%30.45 "Hg8 mi
8:53 AM4 °FSunny.7 mph80%30.45 "Hg10 mi
7:53 AM2 °FClear.6 mph83%30.44 "Hg10 mi
6:53 AM4 °FClear.6 mph80%30.44 "Hg10 mi
5:53 AM3 °FClear.6 mph79%30.44 "Hg10 mi
4:53 AM2 °FClear.6 mph83%30.44 "Hg10 mi
3:53 AM5 °FClear.8 mph80%30.43 "Hg10 mi
2:53 AM4 °FClear.6 mph80%30.45 "Hg10 mi
1:53 AM6 °FClear.7 mph79%30.43 "Hg10 mi
12:53 AM6 °FClear.7 mph79%30.44 "Hg10 mi
11:53 PM
Dec 16
6 °FClear.7 mph83%30.44 "Hg10 mi
10:53 PM7 °FClear.8 mph83%30.42 "Hg10 mi
9:53 PM9 °FClear.8 mph80%30.42 "Hg10 mi
8:53 PM8 °FClear.9 mph79%30.43 "Hg10 mi
7:53 PM9 °FClear.8 mph80%30.43 "Hg10 mi
6:53 PM10 °FClear.7 mph80%30.42 "Hg10 mi
5:53 PM11 °FClear.6 mph84%30.42 "Hg10 mi
Weather by CustomWeather, © 2014

See weather overviewHow to use our weather pages